SCP
0 0 0 0 0 0 0 0 0 0 0 0 0 0 0 0 0 0 0 0 0 0 0 0 0 0 0 0 0 0 0 0 0 0 0 0 0 0 0 -0 -0 0 0
0 0 0 0 0 0 0 0 0 0 0 0 0 0 0 0 0 0 0 0 0 0 0 0 0 0 0 0 0 0 0 0 0 0 0 0 0 0 0 -0 -0 0 0
0 0 0 0 0 0 0 0 0 0 0 0 0 0 0 0 0 0 0 0 0 0 0 0 0 0 0 0 0 0 0 0 0 -0 -0 0 0 0 0 0 0 0 0
0 0 0 0 0 0 0 0 0 0 0 0 0 0 0 0 0 0 0 0 0 0 0 0 0 0 0 0 0 0 0 0 0 0 0 -0 -0 0 0 0 0 0 0
0 0 0 0 0 0 0 0 0 0 0 0 0 0 0 0 0 0 0 0 0 0 0 0 0 0 0 0 0 0 0 0 0 0 0 0 -0 0 0 0 0 0 0
0 0 0 0 0 0 0 0 0 0 0 0 0 0 0 0 0 0 0 0 0 0 0 0 0 0 0 0 0 0 0 0 0 0 0 0 0 0 0 0 0 0 0
0 0 0 0 0 0 0 0 0 0 0 0 0 0 0 0 0 0 0 0 0 0 0 0 0 0 0 0 0 0 0 0 0 0 0 0 -0 0 0 0 0 0 0
0 0 0 0 0 0 0 0 0 0 0 0 0 0 0 0 0 0 0 0 0 0 0 0 0 0 0 0 0 0 0 0 0 0 0 0 0 0 0 0 0 0 0
0 0 0 0 0 0 0 0 0 0 0 0 0 0 0 0 0 0 0 0 0 0 0 0 0 0 0 0 0 0 0 0 0 0 0 0 0 0 0 0 0 0 0
0 0 0 0 0 0 0 0 0 0 0 0 0 0 0 0 0 0 0 0 0 0 0 0 0 0 0 0 0 0 0 0 0 0 0 0 0 0 0 0 -0 0 0
0 0 0 0 0 0 0 0 0 0 0 0 0 0 0 0 0 0 0 0 0 0 0 0 0 0 0 0 0 0 0 0 0 0 0 0 0 0 0 0 0 0 0
0 0 0 0 0 0 0 0 0 0 0 0 0 0 0 0 0 0 0 0 0 0 0 0 0 0 0 0 0 0 0 0 0 0 0 -0 0 0 0 0 0 0 0
0 0 0 0 0 0 0 0 0 0 0 0 0 0 0 0 0 0 0 0 0 0 0 0 0 0 0 0 0 0 0 0 0 0 0 0 0 0 0 0 0 0 0
0 0 0 0 0 0 0 0 0 0 0 0 0 0 0 0 0 0 0 0 0 0 0 0 0 0 0 0 0 0 0 0 0 0 0 0 0 0 0 0 0 0 0
0 0 0 0 0 0 0 0 0 0 0 0 0 0 0 0 0 0 0 0 0 0 0 0 0 0 0 0 0 0 0 0 0 0 0 0 0 0 0 0 0 0 0
0 0 0 0 0 0 0 0 0 0 0 0 0 0 0 0 0 0 0 0 0 0 0 0 0 0 0 0 0 0 0 0 0 0 0 -0 -0 0 0 0 0 0 0
0 0 0 0 0 0 0 0 0 0 0 0 0 0 0 0 0 0 0 0 0 0 0 0 0 0 0 0 0 0 0 0 0 0 0 0 -0 0 0 0 0 0 0
0 0 0 0 0 0 0 0 0 0 0 0 0 0 0 0 0 0 0 0 0 0 0 0 0 0 0 0 0 0 0 0 0 0 0 0 0 0 0 0 0 0 0
0 0 0 0 0 0 0 0 0 0 0 0 0 0 0 0 0 0 0 0 0 0 0 0 0 0 0 0 0 0 0 0 0 0 0 0 0 0 0 0 0 0 0
0 0 0 0 0 0 0 0 0 0 0 0 0 0 0 0 0 0 0 0 0 0 0 0 0 0 0 0 0 0 0 0 0 0 0 0 0 0 0 0 0 0 0
0 0 0 0 0 0 0 0 0 0 0 0 0 0 0 0 0 0 0 0 0 0 0 0 0 0 0 0 0 0 0 0 0 0 0 0 0 0 0 0 0 0 0
0 0 0 0 0 0 0 0 0 0 0 0 0 0 0 0 0 0 0 0 0 0 0 0 0 0 0 0 0 0 0 0 0 0 0 0 0 0 0 0 0 0 0
0 0 0 0 0 0 0 0 0 0 0 0 0 0 0 0 0 0 0 0 0 0 0 0 0 0 0 0 0 0 0 0 0 0 0 0 0 0 0 0 0 0 0
0 0 0 0 0 0 0 0 0 0 0 0 0 0 0 0 0 0 0 0 0 0 0 0 0 0 0 0 0 0 0 0 0 0 0 0 0 0 0 0 0 0 0
0 0 0 0 0 0 0 0 0 0 0 0 0 0 0 0 0 0 0 0 0 0 0 0 0 0 0 0 0 0 0 0 0 0 0 0 0 0 0 0 0 0 0
0 0 0 0 0 0 0 0 0 0 0 0 0 0 0 0 0 0 0 0 0 0 0 0 0 0 0 0 0 0 0 0 0 0 0 0 0 0 0 0 0 0 0
Wind_Speed
6 5 4 4 4 4 3 3 3 2 2 2 2 2 2 2 2 2 2 2 2 2 2 2 2 2 1 1 1 1 1 1 1 2 2 3 4 4 6 5 4 4 4
6 5 5 4 4 4 3 3 3 3 2 2 2 2 2 2 1 2 1 1 1 1 1 2 2 2 2 1 1 1 1 0 1 2 3 3 3 4 4 4 4 4 3
6 6 5 5 5 5 4 4 3 3 3 2 2 2 2 2 1 1 1 1 0 0 0 0 1 1 1 1 1 1 1 1 0 1 2 2 2 3 3 4 4 3 4
6 6 6 6 6 5 4 4 4 4 3 3 2 2 2 2 2 1 1 1 0 0 0 0 1 1 1 1 1 1 0 1 1 1 2 2 2 3 2 3 4 3 4
7 7 7 6 5 5 4 4 4 3 4 3 3 2 1 2 2 2 2 2 1 0 1 1 1 1 1 1 0 1 0 0 1 1 2 2 2 2 2 2 3 4 3
7 7 6 5 5 5 5 4 4 4 3 3 3 3 2 2 3 4 3 2 1 1 1 2 2 2 2 3 2 1 1 1 1 1 1 2 3 3 2 2 2 3 3
7 6 6 6 6 5 5 5 5 4 3 3 3 3 3 3 5 4 4 2 2 2 2 2 2 2 2 1 3 3 3 4 3 2 2 3 3 3 2 3 2 2 4
7 6 6 6 6 5 5 5 5 4 4 4 4 4 3 4 6 5 4 2 2 2 3 3 3 3 3 2 1 2 3 3 4 2 3 4 5 4 4 3 3 3 4
6 7 7 7 7 6 6 6 4 4 4 4 4 4 4 5 6 6 4 2 2 3 3 3 3 3 6 5 2 2 4 4 5 6 6 6 7 7 5 1 2 2 4
7 7 6 7 7 7 7 5 4 4 4 4 4 4 5 5 7 7 6 2 2 3 3 3 6 6 7 6 3 3 4 5 4 4 5 6 5 6 7 3 3 3 3
5 4 5 6 7 6 5 4 4 4 3 3 3 3 4 5 7 8 7 3 4 3 3 3 4 9 9 9 6 5 8 6 3 3 3 4 3 3 3 3 3 4 4
4 4 4 5 4 4 5 4 3 4 3 3 3 3 3 4 6 7 9 8 7 5 5 4 5 10 10 10 7 8 10 7 2 2 3 4 4 4 4 4 5 5 6
4 3 3 3 3 3 4 4 3 3 3 3 3 3 4 3 4 8 9 9 9 6 5 8 9 10 8 7 8 9 7 3 2 3 4 5 4 5 4 3 4 4 5
4 2 2 3 2 2 2 3 3 4 4 3 4 4 4 3 3 3 4 4 6 6 5 6 8 8 6 6 6 5 3 3 4 5 5 5 4 3 4 3 3 3 4
3 2 2 2 3 2 2 2 4 4 5 5 5 4 4 5 7 8 5 4 4 5 3 2 2 2 3 3 3 4 3 3 4 4 4 5 4 4 5 3 3 3 4
3 2 2 2 2 2 1 1 2 3 5 7 6 5 5 8 8 7 8 8 8 7 3 2 4 4 5 5 5 5 4 5 5 5 5 5 5 5 6 4 4 4 6
3 2 2 2 2 2 2 1 1 3 3 4 5 6 6 7 7 7 7 6 6 5 3 4 5 5 5 5 5 5 5 5 5 5 5 5 5 5 5 5 5 5 6
2 2 2 2 2 2 2 2 2 1 2 3 4 5 5 5 5 5 4 2 2 2 3 4 5 5 5 5 6 6 6 5 5 5 6 6 6 5 6 6 6 7 7
2 1 1 1 1 1 1 1 1 1 1 2 2 3 4 4 4 4 2 1 3 4 4 4 5 5 5 6 6 6 6 6 6 5 5 6 6 6 6 7 7 9 8
1 2 2 1 1 1 1 0 0 1 1 2 2 3 2 2 2 2 2 2 3 4 4 5 5 5 5 5 5 5 5 6 6 6 6 6 6 6 7 8 7 7 7
1 1 2 1 1 1 1 1 1 1 2 2 3 3 3 2 2 3 3 3 3 4 4 5 5 5 5 5 5 5 7 6 6 6 6 6 6 6 7 7 7 7 7
2 1 1 1 1 1 1 1 1 1 2 3 3 3 4 2 2 3 3 4 4 4 4 4 4 4 5 5 5 5 6 6 6 6 6 6 6 7 7 7 7 7 7
1 1 0 0 1 1 1 1 1 2 2 3 3 3 2 3 3 3 4 4 4 4 4 4 4 4 4 4 4 5 6 6 6 6 7 7 7 7 7 8 9 9 8
1 1 1 1 1 1 1 2 2 2 3 3 3 3 3 4 4 4 4 4 4 4 4 4 4 6 8 6 5 5 5 6 6 6 8 8 8 7 7 7 8 9 9
1 1 1 1 1 1 1 2 2 2 3 3 3 3 3 3 4 4 4 4 5 5 5 5 4 5 7 9 8 7 9 11 10 7 7 7 8 8 8 8 8 9 9
1 0 0 0 1 1 1 2 2 2 3 3 3 3 3 4 4 4 5 4 5 5 5 5 6 7 9 8 9 11 12 12 12 12 7 6 7 7 7 7 9 9 10
Wind_Direction
179 177 167 170 166 156 159 173 174 168 157 150 141 121 106 89 80 85 77 70 67 37 24 40 18 5 24 14 29 50 70 140 204 293 299 314 334 341 341 345 353 358 354
178 172 173 167 161 163 171 177 168 165 162 156 142 129 124 113 104 112 101 76 84 45 5 22 359 10 17 5 22 25 10 185 181 288 315 325 326 325 329 339 350 357 351
169 170 172 172 174 181 184 180 169 163 157 149 144 145 148 144 134 141 139 121 123 195 277 6 323 13 358 339 359 7 347 5 139 243 298 309 311 321 332 334 340 338 343
171 174 183 190 189 187 181 176 173 167 164 164 167 167 167 163 163 166 149 134 127 316 297 273 280 255 266 282 316 310 330 25 351 307 301 309 305 308 332 336 335 338 334
176 185 196 190 181 173 173 176 171 171 177 171 165 172 177 179 187 177 170 164 163 213 327 308 281 282 297 273 271 232 173 63 337 328 311 317 317 326 322 312 318 318 317
183 195 190 175 176 180 181 176 170 174 174 166 178 184 199 216 207 199 180 170 178 189 262 300 299 310 326 335 327 308 234 215 231 250 279 284 286 281 286 297 309 332 319
187 188 179 176 182 189 183 174 181 185 179 184 196 193 211 233 222 212 206 181 192 210 227 258 285 292 307 320 325 331 319 303 265 220 236 257 267 264 273 289 280 269 270
185 185 181 179 186 184 179 186 192 186 185 194 204 208 215 237 230 221 216 187 202 227 231 230 239 268 269 266 269 309 300 296 283 262 233 248 253 254 239 248 262 278 277
190 192 187 182 183 182 191 199 194 186 195 201 203 205 212 240 238 228 215 182 217 247 250 240 234 245 264 267 249 268 287 290 285 277 268 270 277 282 276 275 285 294 296
202 200 188 183 184 191 198 196 188 190 202 202 213 213 216 234 243 235 224 191 218 247 261 261 258 257 264 260 237 236 263 270 278 293 294 297 293 291 286 253 230 246 266
197 185 180 185 191 192 188 185 182 183 184 200 218 230 230 237 247 243 233 210 212 230 247 255 257 266 268 265 251 233 251 262 253 256 272 284 289 283 275 255 230 223 237
161 169 179 182 188 180 174 178 174 172 183 207 222 250 251 248 245 249 244 238 227 219 237 243 251 264 268 268 261 257 263 269 254 255 267 274 275 274 270 263 252 242 239
142 162 174 169 174 166 170 173 169 175 189 210 216 238 255 252 254 255 253 250 242 232 239 248 257 265 268 267 265 267 267 254 240 250 257 259 256 261 270 278 274 264 262
137 148 149 146 150 153 166 173 177 187 198 212 222 236 250 256 253 250 248 251 252 250 253 262 268 269 261 260 269 272 256 238 235 243 254 259 264 267 265 261 268 277 282
129 134 138 144 155 161 178 195 199 208 201 204 218 220 227 248 249 238 229 232 228 232 240 255 259 266 264 264 264 262 255 253 251 245 249 259 264 267 267 258 252 258 259
127 135 148 149 156 162 173 277 269 245 248 240 236 228 237 245 262 260 251 249 247 242 225 237 251 251 253 256 260 263 257 250 246 246 248 249 255 261 267 263 248 248 261
143 156 158 158 165 172 176 190 278 313 306 279 269 262 259 266 271 270 267 262 257 242 228 243 250 253 255 255 253 253 256 255 248 245 248 249 250 255 259 262 258 256 261
134 144 151 173 174 181 193 204 208 228 295 309 306 296 289 284 282 277 275 285 282 255 234 245 251 254 256 256 255 253 256 258 252 248 248 248 245 249 255 258 257 256 262
129 135 149 149 152 169 178 180 209 240 257 283 308 311 307 306 308 305 300 228 247 257 254 253 254 255 257 257 257 255 255 256 255 252 252 252 249 248 253 256 258 261 261
115 103 102 112 113 116 123 146 231 258 269 275 279 284 305 332 320 309 296 267 261 264 265 265 265 262 262 262 263 261 262 261 258 254 254 254 251 249 254 259 259 260 261
118 99 92 101 136 165 186 214 229 234 249 265 270 275 290 275 272 278 278 269 264 267 270 270 270 270 267 267 267 265 264 264 260 258 258 257 254 254 255 257 260 260 263
132 132 139 163 184 211 243 248 248 254 264 272 284 291 296 283 274 279 279 278 273 266 265 267 271 270 267 266 268 268 268 268 267 264 262 262 260 260 259 258 259 261 262
136 139 130 234 234 259 274 269 262 264 270 273 277 283 282 276 274 275 278 282 284 284 282 275 275 279 279 274 269 264 265 267 267 266 266 267 265 264 261 261 261 263 263
142 154 178 240 253 247 258 270 270 271 273 275 275 273 272 272 275 277 280 282 283 284 284 282 277 278 281 284 281 273 268 271 272 267 263 263 265 265 264 265 265 266 266
131 147 178 230 263 268 271 274 278 281 282 280 278 279 281 282 284 287 288 287 288 286 286 286 283 284 284 283 283 282 282 282 282 282 273 266 265 264 265 266 268 269 269
121 131 206 247 278 283 279 281 283 285 286 287 286 288 286 286 287 288 289 288 287 286 286 284 282 284 287 286 283 285 288 289 290 289 285 275 271 268 268 269 271 270 272